Location: Unspecified
(0.0000°N, 0.0000°E)
Time: 18:58:22
(UTC+00:00)

N. Korean satellite - Pass Details

Date: 08 December 2017
Orbit: 461 x 513 km, 97.2° (Epoch: 10 December)

Event Time Altitude Azimuth Distance (km) Brightness Sun altitude
Rises 18:48:51 0° 186° (S) 2,519 10.6 -13.1°
Reaches altitude 10° 18:51:04 10° 197° (SSW) 1,648 9.8 -13.6°
Maximum altitude 18:54:11 29° 259° (W) 900 8.7 -14.3°
Drops below altitude 10° 18:57:21 10° 321° (NW) 1,667 9.5 -15.0°
Sets 18:59:36 0° 332° (NNW) 2,554 10.3 -15.5°
